Year,Month,Day,Hour,Minute,Value (Times are PST for temperature in C)
2012,08,05,00,00,26.00
2012,08,05,00,01,26.00
2012,08,05,00,02,25.90
2012,08,05,00,03,25.90
2012,08,05,00,04,25.90
2012,08,05,00,05,25.90
2012,08,05,00,06,25.90
2012,08,05,00,07,25.90
2012,08,05,00,08,25.80
2012,08,05,00,09,25.80
2012,08,05,00,10,25.80
2012,08,05,00,11,25.70
2012,08,05,00,12,25.70
2012,08,05,00,13,25.60
2012,08,05,00,14,25.60
2012,08,05,00,15,25.50
2012,08,05,00,16,25.50
2012,08,05,00,17,25.40
2012,08,05,00,18,25.40
2012,08,05,00,19,25.30
2012,08,05,00,20,25.30
2012,08,05,00,21,25.30
2012,08,05,00,22,25.20
2012,08,05,00,23,25.20
2012,08,05,00,24,25.20
2012,08,05,00,25,25.10
2012,08,05,00,26,25.10
2012,08,05,00,27,25.10
2012,08,05,00,28,25.10
2012,08,05,00,29,25.10
2012,08,05,00,30,25.00
2012,08,05,00,31,25.00
2012,08,05,00,32,24.90
2012,08,05,00,33,24.90
2012,08,05,00,34,24.90
2012,08,05,00,35,24.80
2012,08,05,00,36,24.80
2012,08,05,00,37,24.80
2012,08,05,00,38,24.80
2012,08,05,00,39,24.80
2012,08,05,00,40,24.70
2012,08,05,00,41,24.70
2012,08,05,00,42,24.70
2012,08,05,00,43,24.60
2012,08,05,00,44,24.60
2012,08,05,00,45,24.60
2012,08,05,00,46,24.50
2012,08,05,00,47,24.50
2012,08,05,00,48,24.40
2012,08,05,00,49,24.40
2012,08,05,00,50,24.40
2012,08,05,00,51,24.30
2012,08,05,00,52,24.30
2012,08,05,00,53,24.30
2012,08,05,00,54,24.30
2012,08,05,00,55,24.20
2012,08,05,00,56,24.20
2012,08,05,00,57,24.20
2012,08,05,00,58,24.20
2012,08,05,00,59,24.20
2012,08,05,01,00,24.20
2012,08,05,01,01,24.20
2012,08,05,01,02,24.20
2012,08,05,01,03,24.10
2012,08,05,01,04,24.10
2012,08,05,01,05,24.10
2012,08,05,01,06,24.10
2012,08,05,01,07,24.10
2012,08,05,01,08,24.10
2012,08,05,01,09,24.10
2012,08,05,01,10,24.00
2012,08,05,01,11,24.00
2012,08,05,01,12,23.90
2012,08,05,01,13,23.90
2012,08,05,01,14,23.90
2012,08,05,01,15,23.90
2012,08,05,01,16,23.80
2012,08,05,01,17,23.80
2012,08,05,01,18,23.80
2012,08,05,01,19,23.80
2012,08,05,01,20,23.70
2012,08,05,01,21,23.70
2012,08,05,01,22,23.60
2012,08,05,01,23,23.60
2012,08,05,01,24,23.60
2012,08,05,01,25,23.50
2012,08,05,01,26,23.50
2012,08,05,01,27,23.40
2012,08,05,01,28,23.40
2012,08,05,01,29,23.40
2012,08,05,01,30,23.40
2012,08,05,01,31,23.40
2012,08,05,01,32,23.40
2012,08,05,01,33,23.30
2012,08,05,01,34,23.30
2012,08,05,01,35,23.30
2012,08,05,01,36,23.30
2012,08,05,01,37,23.20
2012,08,05,01,38,23.20
2012,08,05,01,39,23.20
2012,08,05,01,40,23.10
2012,08,05,01,41,23.10
2012,08,05,01,42,23.10
2012,08,05,01,43,23.00
2012,08,05,01,44,23.00
2012,08,05,01,45,23.00
2012,08,05,01,46,22.90
2012,08,05,01,47,22.90
2012,08,05,01,48,22.80
2012,08,05,01,49,22.80
2012,08,05,01,50,22.80
2012,08,05,01,51,22.70
2012,08,05,01,52,22.70
2012,08,05,01,53,22.70
2012,08,05,01,54,22.60
2012,08,05,01,55,22.60
2012,08,05,01,56,22.60
2012,08,05,01,57,22.50
2012,08,05,01,58,22.50
2012,08,05,01,59,22.40
2012,08,05,02,00,22.40
2012,08,05,02,01,22.40
2012,08,05,02,02,22.40
2012,08,05,02,03,22.30
2012,08,05,02,04,22.30
2012,08,05,02,05,22.30
2012,08,05,02,06,22.30
2012,08,05,02,07,22.30
2012,08,05,02,08,22.30
2012,08,05,02,09,22.20
2012,08,05,02,10,22.20
2012,08,05,02,11,22.20
2012,08,05,02,12,22.20
2012,08,05,02,13,22.20
2012,08,05,02,14,22.20
2012,08,05,02,15,22.20
2012,08,05,02,16,22.20
2012,08,05,02,17,22.20
2012,08,05,02,18,22.20
2012,08,05,02,19,22.30
2012,08,05,02,20,22.30
2012,08,05,02,21,22.30
2012,08,05,02,22,22.30
2012,08,05,02,23,22.30
2012,08,05,02,24,22.30
2012,08,05,02,25,22.30
2012,08,05,02,26,22.30
2012,08,05,02,27,22.30
2012,08,05,02,28,22.20
2012,08,05,02,29,22.20
2012,08,05,02,30,22.20
2012,08,05,02,31,22.20
2012,08,05,02,32,22.20
2012,08,05,02,33,22.10
2012,08,05,02,34,22.10
2012,08,05,02,35,22.10
2012,08,05,02,36,22.10
2012,08,05,02,37,22.10
2012,08,05,02,38,22.10
2012,08,05,02,39,22.10
2012,08,05,02,40,22.00
2012,08,05,02,41,22.00
2012,08,05,02,42,22.00
2012,08,05,02,43,22.00
2012,08,05,02,44,21.90
2012,08,05,02,45,21.90
2012,08,05,02,46,21.90
2012,08,05,02,47,21.90
2012,08,05,02,48,21.90
2012,08,05,02,49,21.90
2012,08,05,02,50,21.90
2012,08,05,02,51,21.90
2012,08,05,02,52,21.90
2012,08,05,02,53,21.90
2012,08,05,02,54,21.80
2012,08,05,02,55,21.80
2012,08,05,02,56,21.80
2012,08,05,02,57,21.80
2012,08,05,02,58,21.80
2012,08,05,02,59,21.80
2012,08,05,03,00,21.80
2012,08,05,03,01,21.80
2012,08,05,03,02,21.80
2012,08,05,03,03,21.80
2012,08,05,03,04,21.80
2012,08,05,03,05,21.80
2012,08,05,03,06,21.80
2012,08,05,03,07,21.80
2012,08,05,03,08,21.80
2012,08,05,03,09,21.80
2012,08,05,03,10,21.80
2012,08,05,03,11,21.80
2012,08,05,03,12,21.80
2012,08,05,03,13,21.70
2012,08,05,03,14,21.70
2012,08,05,03,15,21.70
2012,08,05,03,16,21.70
2012,08,05,03,17,21.70
2012,08,05,03,18,21.60
2012,08,05,03,19,21.60
2012,08,05,03,20,21.60
2012,08,05,03,21,21.60
2012,08,05,03,22,21.60
2012,08,05,03,23,21.60
2012,08,05,03,24,21.60
2012,08,05,03,25,21.70
2012,08,05,03,26,21.70
2012,08,05,03,27,21.70
2012,08,05,03,28,21.70
2012,08,05,03,29,21.80
2012,08,05,03,30,21.80
2012,08,05,03,31,21.80
2012,08,05,03,32,21.80
2012,08,05,03,33,21.80
2012,08,05,03,34,21.90
2012,08,05,03,35,21.90
2012,08,05,03,36,21.90
2012,08,05,03,37,21.90
2012,08,05,03,38,21.90
2012,08,05,03,39,22.00
2012,08,05,03,40,22.10
2012,08,05,03,41,22.10
2012,08,05,03,42,22.10
2012,08,05,03,43,22.10
2012,08,05,03,44,22.10
2012,08,05,03,45,22.10
2012,08,05,03,46,22.10
2012,08,05,03,47,22.10
2012,08,05,03,48,22.00
2012,08,05,03,49,22.00
2012,08,05,03,50,21.90
2012,08,05,03,51,21.90
2012,08,05,03,52,21.80
2012,08,05,03,53,21.80
2012,08,05,03,54,21.80
2012,08,05,03,55,21.80
2012,08,05,03,56,21.90
2012,08,05,03,57,21.90
2012,08,05,03,58,21.90
2012,08,05,03,59,21.90
2012,08,05,04,00,21.90
2012,08,05,04,01,21.90
2012,08,05,04,02,21.90
2012,08,05,04,03,21.80
2012,08,05,04,04,21.80
2012,08,05,04,05,21.80
2012,08,05,04,06,21.80
2012,08,05,04,07,21.80
2012,08,05,04,08,21.80
2012,08,05,04,09,21.80
2012,08,05,04,10,21.80
2012,08,05,04,11,21.80
2012,08,05,04,12,21.80
2012,08,05,04,13,21.80
2012,08,05,04,14,21.80
2012,08,05,04,15,21.90
2012,08,05,04,16,21.90
2012,08,05,04,17,21.90
2012,08,05,04,18,21.80
2012,08,05,04,19,21.90
2012,08,05,04,20,21.80
2012,08,05,04,21,21.80
2012,08,05,04,22,21.90
2012,08,05,04,23,21.90
2012,08,05,04,24,21.80
2012,08,05,04,25,21.80
2012,08,05,04,26,21.80
2012,08,05,04,27,21.80
2012,08,05,04,28,21.80
2012,08,05,04,29,21.80
2012,08,05,04,30,21.80
2012,08,05,04,31,21.90
2012,08,05,04,32,21.80
2012,08,05,04,33,21.80
2012,08,05,04,34,21.80
2012,08,05,04,35,21.80
2012,08,05,04,36,21.80
2012,08,05,04,37,21.80
2012,08,05,04,38,21.90
2012,08,05,04,39,21.80
2012,08,05,04,40,21.80
2012,08,05,04,41,21.80
2012,08,05,04,42,21.80
2012,08,05,04,43,21.80
2012,08,05,04,44,21.80
2012,08,05,04,45,21.80
2012,08,05,04,46,21.80
2012,08,05,04,47,21.80
2012,08,05,04,48,21.80
2012,08,05,04,49,21.80
2012,08,05,04,50,21.80
2012,08,05,04,51,21.80
2012,08,05,04,52,21.80
2012,08,05,04,53,21.80
2012,08,05,04,54,21.80
2012,08,05,04,55,21.80
2012,08,05,04,56,21.80
2012,08,05,04,57,21.80
2012,08,05,04,58,21.80
2012,08,05,04,59,21.80
2012,08,05,05,00,21.80
2012,08,05,05,01,21.80
2012,08,05,05,02,21.80
2012,08,05,05,03,21.80
2012,08,05,05,04,21.80
2012,08,05,05,05,21.80
2012,08,05,05,06,21.70
2012,08,05,05,07,21.70
2012,08,05,05,08,21.70
2012,08,05,05,09,21.70
2012,08,05,05,10,21.70
2012,08,05,05,11,21.70
2012,08,05,05,12,21.70
2012,08,05,05,13,21.60
2012,08,05,05,14,21.60
2012,08,05,05,15,21.50
2012,08,05,05,16,21.50
2012,08,05,05,17,21.40
2012,08,05,05,18,21.40
2012,08,05,05,19,21.30
2012,08,05,05,20,21.30
2012,08,05,05,21,21.20
2012,08,05,05,22,21.20
2012,08,05,05,23,21.20
2012,08,05,05,24,21.10
2012,08,05,05,25,21.10
2012,08,05,05,26,21.00
2012,08,05,05,27,21.00
2012,08,05,05,28,20.90
2012,08,05,05,29,20.90
2012,08,05,05,30,20.80
2012,08,05,05,31,20.80
2012,08,05,05,32,20.80
2012,08,05,05,33,20.80
2012,08,05,05,34,20.70
2012,08,05,05,35,20.70
2012,08,05,05,36,20.70
2012,08,05,05,37,20.70
2012,08,05,05,38,20.70
2012,08,05,05,39,20.70
2012,08,05,05,40,20.70
2012,08,05,05,41,20.70
2012,08,05,05,42,20.70
2012,08,05,05,43,20.70
2012,08,05,05,44,20.70
2012,08,05,05,45,20.70
2012,08,05,05,46,20.70
2012,08,05,05,47,20.70
2012,08,05,05,48,20.70
2012,08,05,05,49,20.70
2012,08,05,05,50,20.70
2012,08,05,05,51,20.70
2012,08,05,05,52,20.70
2012,08,05,05,53,20.70
2012,08,05,05,54,20.70
2012,08,05,05,55,20.70
2012,08,05,05,56,20.70
2012,08,05,05,57,20.70
2012,08,05,05,58,20.70
2012,08,05,05,59,20.70
2012,08,05,06,00,20.70
2012,08,05,06,01,20.70
2012,08,05,06,02,20.70
2012,08,05,06,03,20.70
2012,08,05,06,04,20.70
2012,08,05,06,05,20.70
2012,08,05,06,06,20.60
2012,08,05,06,07,20.60
2012,08,05,06,08,20.60
2012,08,05,06,09,20.60
2012,08,05,06,10,20.60
2012,08,05,06,11,20.60
2012,08,05,06,12,20.60
2012,08,05,06,13,20.70
2012,08,05,06,14,20.70
2012,08,05,06,15,20.70
2012,08,05,06,16,20.70
2012,08,05,06,17,20.70
2012,08,05,06,18,20.70
2012,08,05,06,19,20.70
2012,08,05,06,20,20.60
2012,08,05,06,21,20.60
2012,08,05,06,22,20.60
2012,08,05,06,23,20.60
2012,08,05,06,24,20.60
2012,08,05,06,25,20.50
2012,08,05,06,26,20.50
2012,08,05,06,27,20.50
2012,08,05,06,28,20.50
2012,08,05,06,29,20.50
2012,08,05,06,30,20.50
2012,08,05,06,31,20.50
2012,08,05,06,32,20.50
2012,08,05,06,33,20.50
2012,08,05,06,34,20.50
2012,08,05,06,35,20.60
2012,08,05,06,36,20.60
2012,08,05,06,37,20.60
2012,08,05,06,38,20.60
2012,08,05,06,39,20.60
2012,08,05,06,40,20.70
2012,08,05,06,41,20.70
2012,08,05,06,42,20.70
2012,08,05,06,43,20.80
2012,08,05,06,44,20.80
2012,08,05,06,45,20.80
2012,08,05,06,46,20.80
2012,08,05,06,47,20.80
2012,08,05,06,48,20.80
2012,08,05,06,49,20.80
2012,08,05,06,50,20.80
2012,08,05,06,51,20.80
2012,08,05,06,52,20.80
2012,08,05,06,53,20.80
2012,08,05,06,54,20.80
2012,08,05,06,55,20.80
2012,08,05,06,56,20.80
2012,08,05,06,57,20.80
2012,08,05,06,58,20.80
2012,08,05,06,59,20.80
2012,08,05,07,00,20.80
2012,08,05,07,01,20.80
2012,08,05,07,02,20.80
2012,08,05,07,03,20.90
2012,08,05,07,04,20.90
2012,08,05,07,05,20.90
2012,08,05,07,06,20.90
2012,08,05,07,07,20.90
2012,08,05,07,08,20.90
2012,08,05,07,09,20.90
2012,08,05,07,10,20.90
2012,08,05,07,11,20.90
2012,08,05,07,12,20.90
2012,08,05,07,13,20.90
2012,08,05,07,14,20.90
2012,08,05,07,15,20.90
2012,08,05,07,16,20.90
2012,08,05,07,17,20.90
2012,08,05,07,18,20.90
2012,08,05,07,19,20.90
2012,08,05,07,20,20.90
2012,08,05,07,21,20.90
2012,08,05,07,22,20.90
2012,08,05,07,23,20.90
2012,08,05,07,24,21.00
2012,08,05,07,25,21.00
2012,08,05,07,26,21.00
2012,08,05,07,27,21.10
2012,08,05,07,28,21.10
2012,08,05,07,29,21.10
2012,08,05,07,30,21.10
2012,08,05,07,31,21.20
2012,08,05,07,32,21.20
2012,08,05,07,33,21.30
2012,08,05,07,34,21.30
2012,08,05,07,35,21.40
2012,08,05,07,36,21.40
2012,08,05,07,37,21.40
2012,08,05,07,38,21.50
2012,08,05,07,39,21.50
2012,08,05,07,40,21.60
2012,08,05,07,41,21.60
2012,08,05,07,42,21.60
2012,08,05,07,43,21.70
2012,08,05,07,44,21.70
2012,08,05,07,45,21.70
2012,08,05,07,46,21.70
2012,08,05,07,47,21.70
2012,08,05,07,48,21.70
2012,08,05,07,49,21.70
2012,08,05,07,50,21.70
2012,08,05,07,51,21.70
2012,08,05,07,52,21.70
2012,08,05,07,53,21.70
2012,08,05,07,54,21.70
2012,08,05,07,55,21.80
2012,08,05,07,56,21.80
2012,08,05,07,57,21.80
2012,08,05,07,58,21.80
2012,08,05,07,59,21.80
2012,08,05,08,00,21.80
2012,08,05,08,01,21.80
2012,08,05,08,02,21.80
2012,08,05,08,03,21.90
2012,08,05,08,04,21.90
2012,08,05,08,05,21.90
2012,08,05,08,06,21.90
2012,08,05,08,07,21.90
2012,08,05,08,08,21.90
2012,08,05,08,09,21.90
2012,08,05,08,10,21.90
2012,08,05,08,11,21.90
2012,08,05,08,12,21.90
2012,08,05,08,13,21.90
2012,08,05,08,14,22.00
2012,08,05,08,15,22.00
2012,08,05,08,16,22.00
2012,08,05,08,17,22.10
2012,08,05,08,18,22.10
2012,08,05,08,19,22.10
2012,08,05,08,20,22.20
2012,08,05,08,21,22.20
2012,08,05,08,22,22.20
2012,08,05,08,23,22.20
2012,08,05,08,24,22.20
2012,08,05,08,25,22.20
2012,08,05,08,26,22.20
2012,08,05,08,27,22.20
2012,08,05,08,28,22.20
2012,08,05,08,29,22.20
2012,08,05,08,30,22.20
2012,08,05,08,31,22.20
2012,08,05,08,32,22.20
2012,08,05,08,33,22.30
2012,08,05,08,34,22.30
2012,08,05,08,35,22.30
2012,08,05,08,36,22.30
2012,08,05,08,37,22.30
2012,08,05,08,38,22.30
2012,08,05,08,39,22.40
2012,08,05,08,40,22.40
2012,08,05,08,41,22.40
2012,08,05,08,42,22.50
2012,08,05,08,43,22.50
2012,08,05,08,44,22.60
2012,08,05,08,45,22.60
2012,08,05,08,46,22.60
2012,08,05,08,47,22.60
2012,08,05,08,48,22.60
2012,08,05,08,49,22.70
2012,08,05,08,50,22.70
2012,08,05,08,51,22.70
2012,08,05,08,52,22.60
2012,08,05,08,53,22.60
2012,08,05,08,54,22.70
2012,08,05,08,55,22.70
2012,08,05,08,56,22.70
2012,08,05,08,57,22.70
2012,08,05,08,58,22.80
2012,08,05,08,59,22.80
2012,08,05,09,00,22.80
2012,08,05,09,01,22.80
2012,08,05,09,02,22.80
2012,08,05,09,03,22.80
2012,08,05,09,04,22.90
2012,08,05,09,05,22.90
2012,08,05,09,06,22.90
2012,08,05,09,07,23.00
2012,08,05,09,08,23.00
2012,08,05,09,09,23.10
2012,08,05,09,10,23.10
2012,08,05,09,11,23.10
2012,08,05,09,12,23.10
2012,08,05,09,13,23.20
2012,08,05,09,14,23.20
2012,08,05,09,15,23.20
2012,08,05,09,16,23.20
2012,08,05,09,17,23.20
2012,08,05,09,18,23.20
2012,08,05,09,19,23.20
2012,08,05,09,20,23.20
2012,08,05,09,21,23.20
2012,08,05,09,22,23.20
2012,08,05,09,23,23.30
2012,08,05,09,24,23.30
2012,08,05,09,25,23.30
2012,08,05,09,26,23.30
2012,08,05,09,27,23.30
2012,08,05,09,28,23.30
2012,08,05,09,29,23.40
2012,08,05,09,30,23.40
2012,08,05,09,31,23.50
2012,08,05,09,32,23.50
2012,08,05,09,33,23.50
2012,08,05,09,34,23.60
2012,08,05,09,35,23.60
2012,08,05,09,36,23.60
2012,08,05,09,37,23.60
2012,08,05,09,38,23.60
2012,08,05,09,39,23.60
2012,08,05,09,40,23.60
2012,08,05,09,41,23.60
2012,08,05,09,42,23.60
2012,08,05,09,43,23.60
2012,08,05,09,44,23.60
2012,08,05,09,45,23.60
2012,08,05,09,46,23.70
2012,08,05,09,47,23.70
2012,08,05,09,48,23.80
2012,08,05,09,49,23.80
2012,08,05,09,50,23.80
2012,08,05,09,51,23.80
2012,08,05,09,52,23.80
2012,08,05,09,53,23.80
2012,08,05,09,54,23.90
2012,08,05,09,55,23.90
2012,08,05,09,56,24.00
2012,08,05,09,57,24.00
2012,08,05,09,58,24.00
2012,08,05,09,59,24.10
2012,08,05,10,00,24.10
2012,08,05,10,01,24.10
2012,08,05,10,02,24.10
2012,08,05,10,03,24.10
2012,08,05,10,04,24.10
2012,08,05,10,05,24.20
2012,08,05,10,06,24.20
2012,08,05,10,07,24.30
2012,08,05,10,08,24.30
2012,08,05,10,09,24.30
2012,08,05,10,10,24.30
2012,08,05,10,11,24.30
2012,08,05,10,12,24.40
2012,08,05,10,13,24.40
2012,08,05,10,14,24.40
2012,08,05,10,15,24.40
2012,08,05,10,16,24.40
2012,08,05,10,17,24.40
2012,08,05,10,18,24.30
2012,08,05,10,19,24.30
2012,08,05,10,20,24.30
2012,08,05,10,21,24.30
2012,08,05,10,22,24.40
2012,08,05,10,23,24.40
2012,08,05,10,24,24.50
2012,08,05,10,25,24.50
2012,08,05,10,26,24.50
2012,08,05,10,27,24.50
2012,08,05,10,28,24.40
2012,08,05,10,29,24.40
2012,08,05,10,30,24.40
2012,08,05,10,31,24.40
2012,08,05,10,32,24.40
2012,08,05,10,33,24.30
2012,08,05,10,34,24.10
2012,08,05,10,35,24.00
2012,08,05,10,36,23.90
2012,08,05,10,37,23.90
2012,08,05,10,38,23.80
2012,08,05,10,39,23.80
2012,08,05,10,40,23.80
2012,08,05,10,41,23.70
2012,08,05,10,42,23.70
2012,08,05,10,43,23.60
2012,08,05,10,44,23.60
2012,08,05,10,45,23.60
2012,08,05,10,46,23.60
2012,08,05,10,47,23.50
2012,08,05,10,48,23.40
2012,08,05,10,49,23.40
2012,08,05,10,50,23.30
2012,08,05,10,51,23.30
2012,08,05,10,52,23.30
2012,08,05,10,53,23.30
2012,08,05,10,54,23.40
2012,08,05,10,55,23.40
2012,08,05,10,56,23.40
2012,08,05,10,57,23.40
2012,08,05,10,58,23.50
2012,08,05,10,59,23.50
2012,08,05,11,00,23.50
2012,08,05,11,01,23.40
2012,08,05,11,02,23.30
2012,08,05,11,03,23.30
2012,08,05,11,04,23.20
2012,08,05,11,05,23.10
2012,08,05,11,06,23.10
2012,08,05,11,07,23.00
2012,08,05,11,08,22.90
2012,08,05,11,09,22.80
2012,08,05,11,10,22.70
2012,08,05,11,11,22.80
2012,08,05,11,12,22.90
2012,08,05,11,13,23.00
2012,08,05,11,14,23.10
2012,08,05,11,15,23.10
2012,08,05,11,16,23.20
2012,08,05,11,17,23.20
2012,08,05,11,18,23.20
2012,08,05,11,19,23.20
2012,08,05,11,20,23.20
2012,08,05,11,21,23.30
2012,08,05,11,22,23.30
2012,08,05,11,23,23.30
2012,08,05,11,24,23.30
2012,08,05,11,25,23.30
2012,08,05,11,26,23.30
2012,08,05,11,27,23.40
2012,08,05,11,28,23.50
2012,08,05,11,29,23.60
2012,08,05,11,30,23.60
2012,08,05,11,31,23.60
2012,08,05,11,32,23.70
2012,08,05,11,33,23.80
2012,08,05,11,34,23.90
2012,08,05,11,35,24.00
2012,08,05,11,36,24.10
2012,08,05,11,37,24.30
2012,08,05,11,38,24.30
2012,08,05,11,39,24.30
2012,08,05,11,40,24.40
2012,08,05,11,41,24.40
2012,08,05,11,42,24.30
2012,08,05,11,43,24.30
2012,08,05,11,44,24.30
2012,08,05,11,45,24.30
2012,08,05,11,46,24.20
2012,08,05,11,47,24.20
2012,08,05,11,48,24.10
2012,08,05,11,49,24.00
2012,08,05,11,50,23.90
2012,08,05,11,51,23.90
2012,08,05,11,52,23.80
2012,08,05,11,53,23.90
2012,08,05,11,54,23.90
2012,08,05,11,55,23.90
2012,08,05,11,56,23.90
2012,08,05,11,57,23.90
2012,08,05,11,58,23.90
2012,08,05,11,59,24.00
2012,08,05,12,00,24.10
2012,08,05,12,01,24.10
2012,08,05,12,02,24.20
2012,08,05,12,03,24.40
2012,08,05,12,04,24.50
2012,08,05,12,05,24.70
2012,08,05,12,06,24.80
2012,08,05,12,07,25.00
2012,08,05,12,08,25.00
2012,08,05,12,09,25.00
2012,08,05,12,10,25.10
2012,08,05,12,11,25.20
2012,08,05,12,12,25.30
2012,08,05,12,13,25.30
2012,08,05,12,14,25.40
2012,08,05,12,15,25.50
2012,08,05,12,16,25.50
2012,08,05,12,17,25.60
2012,08,05,12,18,25.60
2012,08,05,12,19,25.70
2012,08,05,12,20,25.70
2012,08,05,12,21,25.60
2012,08,05,12,22,25.60
2012,08,05,12,23,25.60
2012,08,05,12,24,25.70
2012,08,05,12,25,25.70
2012,08,05,12,26,25.60
2012,08,05,12,27,25.60
2012,08,05,12,28,25.60
2012,08,05,12,29,25.60
2012,08,05,12,30,25.60
2012,08,05,12,31,25.60
2012,08,05,12,32,25.60
2012,08,05,12,33,25.60
2012,08,05,12,34,25.60
2012,08,05,12,35,25.70
2012,08,05,12,36,25.80
2012,08,05,12,37,25.80
2012,08,05,12,38,25.80
2012,08,05,12,39,25.80
2012,08,05,12,40,25.80
2012,08,05,12,41,25.90
2012,08,05,12,42,25.90
2012,08,05,12,43,25.90
2012,08,05,12,44,25.90
2012,08,05,12,45,26.00
2012,08,05,12,46,26.10
2012,08,05,12,47,26.20
2012,08,05,12,48,26.10
2012,08,05,12,49,26.10
2012,08,05,12,50,26.10
2012,08,05,12,51,26.20
2012,08,05,12,52,26.10
2012,08,05,12,53,26.10
2012,08,05,12,54,26.10
2012,08,05,12,55,26.00
2012,08,05,12,56,25.90
2012,08,05,12,57,25.90
2012,08,05,12,58,25.80
2012,08,05,12,59,25.70
2012,08,05,13,00,25.70
2012,08,05,13,01,25.70
2012,08,05,13,02,25.70
2012,08,05,13,03,25.80
2012,08,05,13,04,25.90
2012,08,05,13,05,26.10
2012,08,05,13,06,26.20
2012,08,05,13,07,26.30
2012,08,05,13,08,26.30
2012,08,05,13,09,26.20
2012,08,05,13,10,26.00
2012,08,05,13,11,25.90
2012,08,05,13,12,25.90
2012,08,05,13,13,25.90
2012,08,05,13,14,25.90
2012,08,05,13,15,25.80
2012,08,05,13,16,25.80
2012,08,05,13,17,25.80
2012,08,05,13,18,25.80
2012,08,05,13,19,25.80
2012,08,05,13,20,25.80
2012,08,05,13,21,25.80
2012,08,05,13,22,25.80
2012,08,05,13,23,25.80
2012,08,05,13,24,25.90
2012,08,05,13,25,25.90
2012,08,05,13,26,25.90
2012,08,05,13,27,25.90
2012,08,05,13,28,25.90
2012,08,05,13,29,25.90
2012,08,05,13,30,25.90
2012,08,05,13,31,25.90
2012,08,05,13,32,26.00
2012,08,05,13,33,26.10
2012,08,05,13,34,26.10
2012,08,05,13,35,26.30
2012,08,05,13,36,26.40
2012,08,05,13,37,26.50
2012,08,05,13,38,26.60
2012,08,05,13,39,26.60
2012,08,05,13,40,26.60
2012,08,05,13,41,26.70
2012,08,05,13,42,26.70
2012,08,05,13,43,26.70
2012,08,05,13,44,26.80
2012,08,05,13,45,26.80
2012,08,05,13,46,26.80
2012,08,05,13,47,26.90
2012,08,05,13,48,27.00
2012,08,05,13,49,27.10
2012,08,05,13,50,27.10
2012,08,05,13,51,27.20
2012,08,05,13,52,27.10
2012,08,05,13,53,27.20
2012,08,05,13,54,27.20
2012,08,05,13,55,27.20
2012,08,05,13,56,27.20
2012,08,05,13,57,27.20
2012,08,05,13,58,27.30
2012,08,05,13,59,27.40
2012,08,05,14,00,27.40
2012,08,05,14,01,27.40
2012,08,05,14,02,27.40
2012,08,05,14,03,27.40
2012,08,05,14,04,27.40
2012,08,05,14,05,27.40
2012,08,05,14,06,27.50
2012,08,05,14,07,27.60
2012,08,05,14,08,27.70
2012,08,05,14,09,27.70
2012,08,05,14,10,27.80
2012,08,05,14,11,27.80
2012,08,05,14,12,27.90
2012,08,05,14,13,28.00
2012,08,05,14,14,28.00
2012,08,05,14,15,28.00
2012,08,05,14,16,28.00
2012,08,05,14,17,27.90
2012,08,05,14,18,27.90
2012,08,05,14,19,27.90
2012,08,05,14,20,27.90
2012,08,05,14,21,27.90
2012,08,05,14,22,27.90
2012,08,05,14,23,28.00
2012,08,05,14,24,28.10
2012,08,05,14,25,28.20
2012,08,05,14,26,28.20
2012,08,05,14,27,28.20
2012,08,05,14,28,28.20
2012,08,05,14,29,28.20
2012,08,05,14,30,28.10
2012,08,05,14,31,28.00
2012,08,05,14,32,28.10
2012,08,05,14,33,28.10
2012,08,05,14,34,28.20
2012,08,05,14,35,28.10
2012,08,05,14,36,28.10
2012,08,05,14,37,28.10
2012,08,05,14,38,28.10
2012,08,05,14,39,28.20
2012,08,05,14,40,28.30
2012,08,05,14,41,28.30
2012,08,05,14,42,28.30
2012,08,05,14,43,28.30
2012,08,05,14,44,28.30
2012,08,05,14,45,28.30
2012,08,05,14,46,28.40
2012,08,05,14,47,28.50
2012,08,05,14,48,28.70
2012,08,05,14,49,28.70
2012,08,05,14,50,28.80
2012,08,05,14,51,28.90
2012,08,05,14,52,29.00
2012,08,05,14,53,29.10
2012,08,05,14,54,29.10
2012,08,05,14,55,29.00
2012,08,05,14,56,29.00
2012,08,05,14,57,28.90
2012,08,05,14,58,28.80
2012,08,05,14,59,28.80
2012,08,05,15,00,28.70
2012,08,05,15,01,28.70
2012,08,05,15,02,28.50
2012,08,05,15,03,28.40
2012,08,05,15,04,28.30
2012,08,05,15,05,28.30
2012,08,05,15,06,28.40
2012,08,05,15,07,28.50
2012,08,05,15,08,28.70
2012,08,05,15,09,28.80
2012,08,05,15,10,28.90
2012,08,05,15,11,28.90
2012,08,05,15,12,28.90
2012,08,05,15,13,28.90
2012,08,05,15,14,28.90
2012,08,05,15,15,28.80
2012,08,05,15,16,28.90
2012,08,05,15,17,29.00
2012,08,05,15,18,29.10
2012,08,05,15,19,29.20
2012,08,05,15,20,29.30
2012,08,05,15,21,29.40
2012,08,05,15,22,29.50
2012,08,05,15,23,29.50
2012,08,05,15,24,29.60
2012,08,05,15,25,29.60
2012,08,05,15,26,29.60
2012,08,05,15,27,29.70
2012,08,05,15,28,29.70
2012,08,05,15,29,29.70
2012,08,05,15,30,29.60
2012,08,05,15,31,29.70
2012,08,05,15,32,29.60
2012,08,05,15,33,29.60
2012,08,05,15,34,29.60
2012,08,05,15,35,29.60
2012,08,05,15,36,29.60
2012,08,05,15,37,29.60
2012,08,05,15,38,29.60
2012,08,05,15,39,29.60
2012,08,05,15,40,29.60
2012,08,05,15,41,29.60
2012,08,05,15,42,29.60
2012,08,05,15,43,29.50
2012,08,05,15,44,29.60
2012,08,05,15,45,29.70
2012,08,05,15,46,29.80
2012,08,05,15,47,29.90
2012,08,05,15,48,29.90
2012,08,05,15,49,29.90
2012,08,05,15,50,29.90
2012,08,05,15,51,29.80
2012,08,05,15,52,29.90
2012,08,05,15,53,29.80
2012,08,05,15,54,29.90
2012,08,05,15,55,29.90
2012,08,05,15,56,29.80
2012,08,05,15,57,29.80
2012,08,05,15,58,29.80
2012,08,05,15,59,29.80
2012,08,05,16,00,29.80
2012,08,05,16,01,29.90
2012,08,05,16,02,30.00
2012,08,05,16,03,30.20
2012,08,05,16,04,30.30
2012,08,05,16,05,30.30
2012,08,05,16,06,30.30
2012,08,05,16,07,30.20
2012,08,05,16,08,30.00
2012,08,05,16,09,29.90
2012,08,05,16,10,29.80
2012,08,05,16,11,29.80
2012,08,05,16,12,29.80
2012,08,05,16,13,29.80
2012,08,05,16,14,29.70
2012,08,05,16,15,29.70
2012,08,05,16,16,29.60
2012,08,05,16,17,29.60
2012,08,05,16,18,29.60
2012,08,05,16,19,29.60
2012,08,05,16,20,29.60
2012,08,05,16,21,29.60
2012,08,05,16,22,29.50
2012,08,05,16,23,29.40
2012,08,05,16,24,29.40
2012,08,05,16,25,29.50
2012,08,05,16,26,29.60
2012,08,05,16,27,29.60
2012,08,05,16,28,29.70
2012,08,05,16,29,29.80
2012,08,05,16,30,29.80
2012,08,05,16,31,29.90
2012,08,05,16,32,29.80
2012,08,05,16,33,29.80
2012,08,05,16,34,29.80
2012,08,05,16,35,29.80
2012,08,05,16,36,29.90
2012,08,05,16,37,29.90
2012,08,05,16,38,30.00
2012,08,05,16,39,30.00
2012,08,05,16,40,30.10
2012,08,05,16,41,30.10
2012,08,05,16,42,30.10
2012,08,05,16,43,30.10
2012,08,05,16,44,30.10
2012,08,05,16,45,30.00
2012,08,05,16,46,30.00
2012,08,05,16,47,29.90
2012,08,05,16,48,29.80
2012,08,05,16,49,29.80
2012,08,05,16,50,29.80
2012,08,05,16,51,29.80
2012,08,05,16,52,29.90
2012,08,05,16,53,30.00
2012,08,05,16,54,30.10
2012,08,05,16,55,30.10
2012,08,05,16,56,30.00
2012,08,05,16,57,30.00
2012,08,05,16,58,30.00
2012,08,05,16,59,30.00
2012,08,05,17,00,30.10
2012,08,05,17,01,30.10
2012,08,05,17,02,30.10
2012,08,05,17,03,30.10
2012,08,05,17,04,30.10
2012,08,05,17,05,30.10
2012,08,05,17,06,30.00
2012,08,05,17,07,30.00
2012,08,05,17,08,30.00
2012,08,05,17,09,30.00
2012,08,05,17,10,30.10
2012,08,05,17,11,30.00
2012,08,05,17,12,30.10
2012,08,05,17,13,30.00
2012,08,05,17,14,30.10
2012,08,05,17,15,30.10
2012,08,05,17,16,30.20
2012,08,05,17,17,30.10
2012,08,05,17,18,30.10
2012,08,05,17,19,30.10